Meteo Giornale » Osservazioni meteo Italia » Messina

ore: 17:55 - Osservazioni Meteo Messina
Lat. 38° 12' N Lon. 15° 33' E Alt. 59 metri s.l.m.

poco_nuvoloso Europe/Rome

19 °C

Poco Nuvoloso

Temp. 24 Ore

16 °C

20 °C

Nord/Nord-Est

9.3 Km/h

Dew point 11 °C

Umidità 59 %

Visibilità  10 Km

Il sole sorge alle ore 05:41

Il sole tramonta alle ore 20:07

Data e Ora Cielo e Fenomeni T °C DP °C Um. % Pres. hPa Vis. km Vento km/h
Oggi h: 17:55 poco_nuvoloso Poco Nuvoloso 19 11 59 1013 10 N/NE 9.3
Oggi h: 16:55 poco_nuvoloso Poco Nuvoloso 19 11 59 1013 10 NE 14.8
Oggi h: 15:55 poco_nuvoloso Poco Nuvoloso 19 13 68 1013 10 NE 20.3
Oggi h: 14:55 poco_nuvoloso Poco Nuvoloso 19 13 68 1013 10 NE 20.3
Oggi h: 13:55 poco_nuvoloso Poco Nuvoloso 19 13 68 1012 10 NE 14.8
Oggi h: 12:55 poco_nuvoloso Poco Nuvoloso 20 13 64 1012 10 E/NE 22.2
Oggi h: 11:55 poco_nuvoloso Poco Nuvoloso 20 12 59 1012 10 E/NE 22.2
Oggi h: 10:55 poco_nuvoloso Poco Nuvoloso 19 12 63 1012 10 N 9.3
Oggi h: 09:55 poco_nuvoloso Poco Nuvoloso 18 13 72 1011 10 E/NE 16.7
Oggi h: 08:55 nuvoloso Nuvoloso 17 14 82 1011 10 NE 9.3
Oggi h: 07:55 molto_nuvoloso Molto Nuvoloso 16 14 87 1011 10 N 1.8
Oggi h: 06:55 molto_nuvoloso Molto Nuvoloso 16 15 93 1010 10 E/NE 9.3
Oggi h: 05:55 molto_nuvoloso Molto Nuvoloso 16 14 87 1010 10 NO 9.3
Oggi h: 04:55 molto_nuvoloso Molto Nuvoloso 16 13 82 1010 10 NO 7.4
Oggi h: 03:55 nuvoloso Nuvoloso 16 13 82 1010 10 NO 11.1
Oggi h: 02:55 nuvoloso Nuvoloso 16 14 87 1010 10 N 9.3
Oggi h: 01:55 nuvoloso Nuvoloso 16 13 82 1010 10 N 5.5
Oggi h: 00:55 poco_nuvoloso Poco Nuvoloso 16 13 82 1010 10 N 3.7
Ieri h: 23:55 poco_nuvoloso Poco Nuvoloso 16 14 87 1010 10 NE 7.4
Ieri h: 22:55 poco_nuvoloso Poco Nuvoloso 17 14 82 1010 10 N 5.5
Ieri h: 21:55 nuvoloso Nuvoloso 17 14 82 1010 10 N 5.5
Ieri h: 20:55 nuvoloso Nuvoloso 17 14 82 1009 10 N 3.7
Ieri h: 19:55 nuvoloso Nuvoloso 17 14 82 1009 10 E/NE 13